Regional Weather Roundup
Issued by NWS

Current Version | Previous Version | Text Only | Print | Product List | Glossary On
Versions: 1 2 3 4 5 6 7 8 9 10 11 12 13 14 15 16 17 18 19 20 21 22 23 24 25 26 27 28 29 30 31 32 33 34 35 36 37 38 39 40 41 42 43 44 45 46 47 48 49 50
000
ASUS45 KBOI 300010
RWRID
WEATHER ROUNDUP FOR IDAHO
NATIONAL WEATHER SERVICE BOISE ID
500 PM MST THU JAN 29 2015

NOTE: "FAIR" INDICATES FEW OR NO CLOUDS BELOW 12000 FEET
WITH NO SIGNIFICANT WEATHER AND/OR OBSTRUCTIONS TO VISIBILITY

IDZ012-014-300100-
SOUTHWEST IDAHO


CITY           SKY/WX    TMP DP  RH WIND       PRES   REMARKS
BOISE          MOCLDY    45  33  63 NW5       30.34S
CALDWELL       CLOUDY    46  30  53 CALM      30.36S
MOUNTAIN HOME  MOCLDY    43  36  75 W6        30.32F
$$

IDZ016-017-300100-
SOUTHCENTRAL IDAHO


CITY           SKY/WX    TMP DP  RH WIND       PRES   REMARKS
BURLEY         CLOUDY    41  33  73 E8        30.28S
JEROME         CLOUDY    43  35  73 E8        30.30S
TWIN FALLS     CLOUDY    43  34  70 E8        30.29S
$$

IDZ019>023-300100-
SOUTHEAST IDAHO


CITY           SKY/WX    TMP DP  RH WIND       PRES   REMARKS
IDAHO FALLS    MOCLDY    37  30  75 N9        30.33S WCI  30
POCATELLO      CLEAR     41  34  76 N12       30.32S
REXBURG        MOCLDY    35  28  75 NE7       30.33F WCI  29
$$

IDZ006-010-011-018-031-032-300100-
CENTRAL IDAHO MOUNTAINS


CITY           SKY/WX    TMP DP  RH WIND       PRES   REMARKS
MCCALL         CLEAR     35  28  75 W5        30.29F WCI  31
HAILEY         MOCLDY    34  28  80 CALM      30.32S
STANLEY          N/A     29  19  66 CALM      30.30F
SALMON         PTCLDY    30  21  69 CALM      30.38S
CHALLIS        CLOUDY    31  25  78 CALM      30.36F
$$

IDZ002-004-006-007-026-300100-
NORTHERN IDAHO


CITY           SKY/WX    TMP DP  RH WIND       PRES   REMARKS
LEWISTON       PTCLDY    40  35  83 S3        30.37F
LOWELL           N/A     40  35  83 CALM      30.37S
COEUR D`ALENE  PTCLDY    39  34  81 SE3       30.34S
MULLAN PASS    PTCLDY    33  20  58 CALM      30.29S
$$



USA.gov is the U.S. government's official web portal to all federal, state and local government web resources and services.